Location: Unspecified
(35.7250°N, 0.0000°E)
Time: 18:48:42
(UTC+00:00)

Altair - Visible Passes

Search period start: 07 August 2020 00:00
Search period end: 17 August 2020 00:00
Orbit: 1501 x 1682 km, 47.2° (Epoch: 07 August)

Date Brightness Start Highest point End Pass type
(mag) Time Alt. Az. Time Alt. Az. Time Alt. Az.
07 Aug 9.4 00:20:19 11° ESE 00:20:19 11° ESE 00:20:49 10° E visible
07 Aug 7.7 02:18:20 48° S 02:20:32 57° SE 02:29:36 10° ENE visible
07 Aug 7.8 04:16:20 11° WSW 04:25:19 59° NNW 04:34:26 10° NE visible
08 Aug 7.7 01:54:27 51° SSE 01:55:25 52° SE 02:04:23 10° ENE visible
08 Aug 7.8 03:52:28 17° WSW 04:00:05 62° NNW 04:09:16 10° NE visible
09 Aug 7.8 01:30:34 48° SE 01:30:34 48° SE 01:39:09 10° ENE visible
09 Aug 7.7 03:28:34 24° WSW 03:34:51 65° NNW 03:44:06 10° NE visible
10 Aug 8.1 01:06:37 42° ESE 01:06:37 42° ESE 01:13:54 10° ENE visible
10 Aug 7.6 03:04:38 32° WSW 03:09:38 69° NNW 03:18:56 10° NE visible
11 Aug 8.4 00:42:39 34° E 00:42:39 34° E 00:48:39 10° ENE visible
11 Aug 7.5 02:40:39 42° WSW 02:44:25 73° NNW 02:53:47 10° NE visible
11 Aug 8.4 04:41:31 10° WNW 04:50:21 42° N 04:59:00 10° ENE visible
12 Aug 8.6 00:18:39 28° E 00:18:39 28° E 00:23:21 10° ENE visible
12 Aug 7.5 02:16:40 54° WSW 02:19:13 78° NNW 02:28:37 10° NE visible
12 Aug 8.3 04:16:08 10° W 04:25:04 43° N 04:33:45 10° ENE visible
12 Aug 8.9 23:54:37 22° E 23:54:37 22° E 23:58:02 10° ENE visible
13 Aug 7.4 01:52:37 69° WSW 01:54:00 82° NW 02:03:28 10° NE visible
13 Aug 8.3 03:50:45 10° W 03:59:45 44° N 04:08:30 10° ENE visible
13 Aug 9.1 23:30:34 17° E 23:30:34 17° E 23:32:41 10° ENE visible
14 Aug 7.3 01:28:34 85° W 01:28:49 87° NNW 01:38:18 10° NE visible
14 Aug 8.2 03:26:33 14° W 03:34:28 45° NNW 03:43:16 10° ENE visible
14 Aug 9.3 23:06:29 12° ENE 23:06:29 12° ENE 23:07:18 10° ENE visible
15 Aug 7.4 01:04:28 78° ENE 01:04:28 78° ENE 01:13:08 10° NE visible
15 Aug 8.2 03:02:28 19° W 03:09:10 46° NNW 03:18:04 10° ENE visible
16 Aug 7.7 00:40:21 63° ENE 00:40:21 63° ENE 00:47:58 10° ENE visible
16 Aug 8.1 02:38:20 25° WNW 02:43:52 48° NNW 02:52:51 10° ENE visible
16 Aug 8.5 04:41:31 10° WNW 04:50:24 43° N 04:59:04 10° E visible
